Location: Gourdan-Polignan
(43.0709°N, 0.5748°E)
Time: 22:13:23
(UTC+00:00)

Cosmos 2219 Rocket - Pass Details

Date: 15 May 2026
Orbit: 825 x 846 km, 71.0° (Epoch: 10 June)

Event Time Altitude Azimuth Distance (km) Brightness Sun altitude
Rises 21:58:46 0° 336° (NNW) 3,405 6.8 -22.5°
Reaches altitude 10° 22:01:13 10° 338° (NNW) 2,469 5.7 -22.7°
Maximum altitude 22:06:54 78° 65° (ENE) 866 2.1 -23.2°
Enters shadow 22:08:12 55° 138° (SE) 1,013 2.2 -23.3°
